Location: Alt?nova Orta
(36.9295°N, 30.7847°E)
Time: 23:55:17
(UTC+00:00)

Lacrosse 4 Rocket - Pass Details

Date: 17 February 2020
Orbit: 537 x 622 km, 68.0° (Epoch: 09 April)

Event Time Altitude Azimuth Distance (km) Brightness Sun altitude
Exits shadow 03:03:35 17° 199° (SSW) 1,576 3.4 -20.7°
Drops below altitude 10° 03:04:49 10° 189° (S) 1,980 4.0 -20.4°
Sets 03:07:16 0° 179° (S) 2,878 5.0 -20.0°
